ATLAS 5 CENTAUR DEB, 57590

Orbit data source: Space-Track

ATLAS 5 CENTAUR DEB, 57590 is space debris in HEO originally from a launch on Wed, 17 Oct 2018 UTC launched from the Air Force Eastern Test Range (AFETR). Debris objects in space refer to the collection of defunct objects orbiting the Earth. Examples of debris include non-operational satellites, rocket bodies, and fragments generated from explosions, collisions, or faulty payload assembly.

Loading next visibility...
Identifier
57590, 2018-079HR
Orbit
HEO
Country
Flag of USUS
Related business
Flag of USUnited Launch Alliance/Lockheed Martin (US)
Manufacturer
ULA Decatur
Mission
Spacecraft
Bus & Motor
Unknown
Mass
Unknown
Launch date (UTC)
2018-10-17 (7 years ago)
Launch vehicle
Unknown
Launch site
Air Force Eastern Test Range (AFETR)
Object type
Payload
Rocket body
Debris
Shape & HBR
Unknown shape, 1.1 m
Radar Cross Section
RCS unknown

Expand to show TLE details & history
Last TLE update: 19 hours ago

TLE from 19 hours ago
0 ATLAS 5 CENTAUR DEB
1 57590U 18079HR  25344.81361021 -.00000119  00000-0  00000-0 0  9993
2 57590  11.4689 101.7738 4966524 175.3392 191.9567  1.56219655 23519
Epoch: 2025-12-10T19:31Z
TLE epoch observation values (Epoch: 2025-12-10T19:31:35.922Z)
Latitude
Longitude
89.03419°
Altitude
40,451.739 km
Speed
2.078 km/s
True Right ascension
06h 46m 50s
True Declination
0° 00' 00"
Sunlit
Object was in daylight at epoch
Visualization orbit readout
Latitude
Unknown
Longitude
Unknown
Altitude
Unknown
Speed
Unknown
Apparent Right ascension
Unknown
Apparent Declination
Unknown
Sunlit
N/A
Visualization observer readout
Local Sidereal Time
13:17:14
Azimuth
Unknown
Elevation
Unknown
Doppler factor
Unknown
Orbital elements
Apogee altitude
40,581.77 km
Perigee altitude
9,415.214 km
Semi-major axis
31,376.629 km
Eccentricity
0.49665
Inclination
11.4689°
RAAN
101.7738°
Arg. of periapsis
175.3392°
True anomaly
184.64301°
Mean anomaly
191.9567°
Eccentric anomaly
187.99757°
Mean motion
0.39051 °/min
Orbital period
921.87 mins
BSTAR
0
Loading maneuver chart data...
Computing Atmospheric mass density...

Documentation

Showing up to 5 results
|